| time (UTC) | temp F | wind direction | speed MPH | gust MPH | rain 1hr in | rain 24hr in | rain mn in | humidity % | barometer mb |
| 20260508012505 | 52 | 325 | 0.0 | 0.0 | 0.00 | 0.12 | 0.11 | 96 | 1010.6 |
| 20260508012003 | 52 | 325 | 0.0 | 0.0 | 0.00 | 0.12 | 0.11 | 96 | 1010.5 |
| 20260508011502 | 52 | 325 | 0.0 | 0.0 | 0.00 | 0.12 | 0.11 | 96 | 1010.5 |
| 20260508011002 | 52 | 325 | 0.0 | 0.0 | 0.00 | 0.12 | 0.11 | 96 | 1010.5 |
| 20260508010501 | 53 | 325 | 0.0 | 0.0 | 0.00 | 0.12 | 0.11 | 96 | 1010.4 |
| 20260508010104 | 53 | 325 | 0.0 | 0.0 | 0.00 | 0.12 | 0.11 | 96 | 1010.3 |
| 20260508005501 | 53 | 325 | 0.0 | 0.0 | 0.00 | 0.12 | 0.11 | 96 | 1010.3 |
| 20260508005003 | 53 | 325 | 0.0 | 0.0 | 0.00 | 0.12 | 0.11 | 96 | 1010.3 |
| 20260508004501 | 53 | 325 | 0.0 | 0.0 | 0.00 | 0.12 | 0.11 | 96 | 1010.3 |
| 20260508004003 | 53 | 325 | 0.0 | 0.0 | 0.00 | 0.12 | 0.11 | 96 | 1010.2 |
| 20260508003506 | 53 | 325 | 0.0 | 0.0 | 0.00 | 0.12 | 0.11 | 96 | 1010.3 |
| 20260508003001 | 53 | 325 | 0.0 | 0.0 | 0.00 | 0.12 | 0.11 | 96 | 1010.2 |
| 20260508002504 | 53 | 325 | 0.0 | 0.0 | 0.00 | 0.12 | 0.11 | 96 | 1010.2 |
| 20260508002100 | 53 | 325 | 0.0 | 0.0 | 0.00 | 0.12 | 0.11 | 96 | 1010.2 |
| 20260508001600 | 53 | 325 | 0.0 | 0.0 | 0.00 | 0.12 | 0.11 | 96 | 1010.2 |
| 20260508001105 | 53 | 325 | 0.0 | 0.0 | 0.00 | 0.12 | 0.11 | 96 | 1010.2 |
| 20260508000600 | 53 | 325 | 0.0 | 0.0 | 0.00 | 0.12 | 0.11 | 95 | 1010.1 |
| 20260508000100 | 53 | 317 | 0.0 | 0.0 | 0.00 | 0.12 | 0.11 | 95 | 1010.0 |
| 20260507235559 | 53 | 317 | 0.0 | 0.0 | 0.00 | 0.12 | 0.11 | 95 | 1009.9 |
| 20260507235059 | 53 | 317 | 0.0 | 0.0 | 0.00 | 0.12 | 0.11 | 95 | 1009.7 |
| 20260507234559 | 53 | 317 | 0.0 | 0.0 | 0.00 | 0.12 | 0.11 | 95 | 1009.7 |
| 20260507234058 | 53 | 317 | 0.0 | 0.0 | 0.00 | 0.12 | 0.11 | 96 | 1009.6 |
| 20260507233601 | 53 | 317 | 0.0 | 0.0 | 0.00 | 0.12 | 0.11 | 96 | 1009.5 |
| 20260507233058 | 53 | 317 | 0.0 | 0.0 | 0.00 | 0.12 | 0.11 | 95 | 1009.5 |
| 20260507232600 | 53 | 317 | 0.0 | 0.0 | 0.00 | 0.12 | 0.11 | 95 | 1009.4 |
| 20260507232058 | 53 | 317 | 0.0 | 0.0 | 0.00 | 0.12 | 0.11 | 96 | 1009.3 |
| 20260507231600 | 53 | 317 | 0.0 | 0.0 | 0.00 | 0.12 | 0.11 | 95 | 1009.3 |
| 20260507231058 | 53 | 317 | 0.0 | 0.0 | 0.00 | 0.12 | 0.11 | 95 | 1009.3 |
| 20260507230602 | 53 | 317 | 0.0 | 0.0 | 0.00 | 0.12 | 0.11 | 95 | 1009.3 |
| 20260507230104 | 53 | 317 | 0.0 | 0.0 | 0.00 | 0.12 | 0.11 | 95 | 1009.3 |
| 20260507225557 | 53 | 317 | 0.0 | 0.0 | 0.00 | 0.12 | 0.11 | 95 | 1009.2 |
| 20260507225057 | 53 | 187 | 0.0 | 0.0 | 0.00 | 0.12 | 0.11 | 96 | 1009.2 |
| 20260507224600 | 53 | 187 | 0.0 | 0.0 | 0.00 | 0.12 | 0.11 | 96 | 1009.2 |
| 20260507224056 | 53 | 187 | 0.0 | 0.0 | 0.00 | 0.12 | 0.11 | 95 | 1009.2 |
| 20260507223556 | 53 | 187 | 0.0 | 0.0 | 0.00 | 0.12 | 0.11 | 95 | 1009.1 |
| 20260507223056 | 53 | 187 | 0.0 | 0.0 | 0.00 | 0.12 | 0.11 | 96 | 1009.1 |
| 20260507222559 | 53 | 187 | 0.0 | 0.0 | 0.00 | 0.12 | 0.11 | 96 | 1009.1 |
| 20260507222057 | 52 | 187 | 0.0 | 0.0 | 0.00 | 0.12 | 0.11 | 96 | 1009.1 |
| 20260507221555 | 52 | 187 | 0.0 | 0.0 | 0.00 | 0.12 | 0.11 | 96 | 1009.0 |
| 20260507221055 | 52 | 187 | 0.0 | 0.0 | 0.00 | 0.12 | 0.11 | 95 | 1009.0 |
| 20260507220555 | 52 | 187 | 0.0 | 0.0 | 0.00 | 0.12 | 0.11 | 95 | 1009.0 |
| 20260507220055 | 52 | 187 | 0.0 | 0.0 | 0.00 | 0.12 | 0.11 | 95 | 1009.0 |
| 20260507215555 | 52 | 187 | 0.0 | 0.0 | 0.00 | 0.12 | 0.11 | 95 | 1009.0 |
| 20260507215055 | 52 | 187 | 0.0 | 0.0 | 0.00 | 0.12 | 0.11 | 95 | 1009.1 |
| 20260507214606 | 52 | 187 | 0.0 | 0.0 | 0.00 | 0.12 | 0.11 | 95 | 1009.1 |
| 20260507214054 | 52 | 187 | 0.0 | 0.0 | 0.00 | 0.12 | 0.11 | 95 | 1009.0 |
| 20260507213554 | 52 | 187 | 0.0 | 0.0 | 0.00 | 0.12 | 0.11 | 95 | 1009.1 |
| 20260507213056 | 52 | 187 | 0.0 | 0.0 | 0.00 | 0.12 | 0.11 | 95 | 1009.1 |
| 20260507212554 | 52 | 187 | 0.0 | 0.0 | 0.00 | 0.12 | 0.11 | 94 | 1009.1 |
| 20260507212057 | 52 | 187 | 0.0 | 0.0 | 0.00 | 0.12 | 0.11 | 94 | 1009.0 |
| 20260507211559 | 53 | 187 | 0.0 | 0.0 | 0.00 | 0.12 | 0.11 | 94 | 1009.1 |
| 20260507211053 | 53 | 187 | 0.0 | 0.0 | 0.00 | 0.12 | 0.11 | 94 | 1008.9 |
| 20260507210553 | 54 | 269 | 0.0 | 0.0 | 0.00 | 0.12 | 0.11 | 94 | 1008.9 |
| 20260507210059 | 53 | 269 | 0.0 | 0.0 | 0.00 | 0.12 | 0.11 | 94 | 1008.8 |
| 20260507205553 | 53 | 276 | 0.0 | 0.0 | 0.00 | 0.12 | 0.11 | 94 | 1008.8 |
| 20260507205052 | 53 | 327 | 0.0 | 0.0 | 0.00 | 0.12 | 0.11 | 94 | 1008.8 |
| 20260507204552 | 53 | 323 | 0.0 | 0.0 | 0.00 | 0.12 | 0.11 | 94 | 1008.8 |
| 20260507204057 | 53 | 304 | 0.0 | 0.0 | 0.00 | 0.12 | 0.11 | 94 | 1008.9 |
| 20260507203552 | 54 | 317 | 0.0 | 0.0 | 0.00 | 0.12 | 0.11 | 94 | 1008.8 |
| 20260507203105 | 54 | 317 | 0.0 | 0.0 | 0.00 | 0.12 | 0.11 | 95 | 1008.9 |
| 20260507202551 | 53 | 317 | 0.0 | 0.0 | 0.00 | 0.12 | 0.11 | 94 | 1009.0 |
| 20260507202051 | 53 | 317 | 0.0 | 0.0 | 0.00 | 0.12 | 0.11 | 94 | 1009.2 |
| 20260507201559 | 53 | 317 | 0.0 | 0.0 | 0.00 | 0.12 | 0.11 | 94 | 1009.2 |
| 20260507201054 | 53 | 98 | 0.0 | 0.0 | 0.00 | 0.12 | 0.11 | 95 | 1009.1 |
| 20260507200551 | 53 | 98 | 0.0 | 0.0 | 0.00 | 0.12 | 0.11 | 95 | 1009.0 |
| 20260507200106 | 53 | 96 | 0.0 | 0.0 | 0.00 | 0.12 | 0.11 | 95 | 1009.0 |
| 20260507195550 | 53 | 96 | 0.0 | 0.0 | 0.00 | 0.12 | 0.11 | 94 | 1009.1 |
| 20260507195050 | 53 | 96 | 0.0 | 0.0 | 0.00 | 0.12 | 0.11 | 94 | 1009.1 |
| 20260507194551 | 53 | 165 | 0.0 | 0.0 | 0.00 | 0.12 | 0.11 | 94 | 1009.3 |
| 20260507194050 | 53 | 165 | 0.0 | 0.0 | 0.00 | 0.12 | 0.11 | 94 | 1009.5 |
| 20260507193550 | 53 | 100 | 0.0 | 0.0 | 0.00 | 0.12 | 0.11 | 95 | 1009.4 |
| 20260507193051 | 53 | 57 | 0.0 | 0.0 | 0.00 | 0.12 | 0.11 | 95 | 1009.4 |
| 20260507192551 | 53 | 66 | 0.0 | 0.0 | 0.00 | 0.12 | 0.11 | 95 | 1009.5 |
| 20260507192049 | 53 | 57 | 0.0 | 0.0 | 0.00 | 0.12 | 0.11 | 95 | 1009.5 |
| 20260507191548 | 52 | 57 | 0.0 | 3.0 | 0.00 | 0.12 | 0.11 | 95 | 1009.8 |
| 20260507191048 | 52 | 346 | 1.0 | 3.0 | 0.00 | 0.12 | 0.11 | 95 | 1010.2 |
| 20260507190551 | 52 | 322 | 0.0 | 3.0 | 0.00 | 0.12 | 0.11 | 95 | 1009.9 |
| 20260507190049 | 52 | 90 | 0.0 | 3.0 | 0.00 | 0.12 | 0.11 | 96 | 1009.9 |
| 20260507185549 | 52 | 345 | 0.0 | 0.0 | 0.01 | 0.12 | 0.11 | 95 | 1010.0 |
| 20260507185047 | 52 | 49 | 0.0 | 0.0 | 0.01 | 0.12 | 0.11 | 96 | 1010.1 |
| 20260507184551 | 52 | 42 | 0.0 | 0.0 | 0.01 | 0.12 | 0.11 | 96 | 1010.1 |
| 20260507184046 | 52 | 42 | 0.0 | 0.0 | 0.03 | 0.12 | 0.11 | 96 | 1010.1 |
| 20260507183546 | 52 | 74 | 0.0 | 0.0 | 0.05 | 0.12 | 0.11 | 96 | 1010.0 |
| 20260507183048 | 52 | 325 | 0.0 | 0.0 | 0.05 | 0.12 | 0.11 | 96 | 1010.0 |
| 20260507182545 | 52 | 175 | 0.0 | 0.0 | 0.05 | 0.12 | 0.11 | 96 | 1010.1 |
| 20260507182049 | 52 | 290 | 0.0 | 0.0 | 0.05 | 0.12 | 0.11 | 96 | 1010.0 |
| 20260507181544 | 52 | 109 | 0.0 | 0.0 | 0.05 | 0.12 | 0.11 | 96 | 1010.0 |
| 20260507181044 | 52 | 241 | 0.0 | 1.0 | 0.05 | 0.12 | 0.11 | 96 | 1010.1 |
| 20260507180547 | 52 | 136 | 0.0 | 2.0 | 0.05 | 0.12 | 0.11 | 96 | 1010.0 |
| 20260507180047 | 52 | 115 | 0.0 | 2.0 | 0.05 | 0.12 | 0.11 | 96 | 1010.0 |
| 20260507175546 | 52 | 270 | 0.0 | 7.0 | 0.04 | 0.11 | 0.10 | 96 | 1009.9 |
| 20260507175042 | 52 | 150 | 1.0 | 7.0 | 0.04 | 0.11 | 0.10 | 96 | 1009.8 |
| 20260507174546 | 52 | 161 | 0.0 | 4.0 | 0.04 | 0.11 | 0.10 | 96 | 1009.8 |
| 20260507174040 | 52 | 178 | 1.0 | 4.0 | 0.02 | 0.08 | 0.07 | 96 | 1009.8 |
| 20260507173541 | 53 | 65 | 0.0 | 0.0 | 0.01 | 0.07 | 0.06 | 96 | 1010.1 |
| 20260507173043 | 53 | 174 | 0.0 | 0.0 | 0.01 | 0.07 | 0.06 | 95 | 1010.0 |
| 20260507172543 | 53 | 195 | 0.0 | 0.0 | 0.01 | 0.07 | 0.06 | 96 | 1009.9 |
| 20260507172040 | 53 | 115 | 0.0 | 3.0 | 0.01 | 0.07 | 0.06 | 96 | 1009.9 |
| 20260507171542 | 53 | 140 | 0.0 | 3.0 | 0.01 | 0.07 | 0.06 | 95 | 1009.9 |
| 20260507171040 | 53 | 91 | 0.0 | 4.0 | 0.01 | 0.07 | 0.06 | 95 | 1010.1 |
| 20260507170540 | 53 | 110 | 0.0 | 4.0 | 0.01 | 0.07 | 0.06 | 96 | 1010.2 |
| 20260507170039 | 53 | 290 | 0.0 | 3.0 | 0.01 | 0.07 | 0.06 | 96 | 1010.2 |
| 20260507165538 | 53 | 132 | 0.0 | 3.0 | 0.01 | 0.07 | 0.06 | 96 | 1010.1 |
| 20260507165039 | 53 | 131 | 0.0 | 3.0 | 0.01 | 0.07 | 0.06 | 96 | 1010.3 |
| 20260507164546 | 53 | 112 | 0.0 | 0.0 | 0.01 | 0.07 | 0.06 | 95 | 1010.3 |
| 20260507164037 | 53 | 99 | 0.0 | 0.0 | 0.00 | 0.06 | 0.05 | 95 | 1010.3 |
| 20260507163537 | 53 | 138 | 0.0 | 1.0 | 0.01 | 0.06 | 0.05 | 95 | 1010.3 |
| 20260507163037 | 53 | 92 | 0.0 | 3.0 | 0.01 | 0.06 | 0.05 | 95 | 1010.2 |
| 20260507162536 | 53 | 63 | 0.0 | 3.0 | 0.01 | 0.06 | 0.05 | 96 | 1010.4 |
| 20260507162137 | 53 | 86 | 0.0 | 3.0 | 0.01 | 0.06 | 0.05 | 96 | 1010.3 |
| 20260507161536 | 53 | 78 | 0.0 | 2.0 | 0.01 | 0.06 | 0.05 | 96 | 1010.3 |
| 20260507161035 | 53 | 96 | 0.0 | 4.0 | 0.01 | 0.06 | 0.05 | 96 | 1010.4 |
| 20260507160535 | 53 | 172 | 0.0 | 4.0 | 0.01 | 0.06 | 0.05 | 96 | 1010.5 |
| 20260507160033 | 53 | 108 | 0.0 | 2.0 | 0.01 | 0.06 | 0.05 | 96 | 1010.6 |
| 20260507155533 | 52 | 123 | 0.0 | 3.0 | 0.01 | 0.07 | 0.05 | 96 | 1010.7 |
| 20260507155035 | 52 | 119 | 1.0 | 3.0 | 0.01 | 0.07 | 0.05 | 96 | 1010.9 |
| 20260507154535 | 53 | 192 | 0.0 | 3.0 | 0.01 | 0.07 | 0.05 | 96 | 1010.9 |
| 20260507154031 | 52 | 69 | 0.0 | 0.0 | 0.01 | 0.07 | 0.05 | 96 | 1010.9 |
| 20260507153532 | 52 | 137 | 0.0 | 0.0 | 0.00 | 0.06 | 0.04 | 95 | 1010.9 |
| 20260507153033 | 52 | 67 | 0.0 | 0.0 | 0.00 | 0.06 | 0.04 | 95 | 1011.1 |
| 20260507152530 | 52 | 69 | 0.0 | 1.0 | 0.00 | 0.06 | 0.04 | 96 | 1010.8 |
| 20260507152029 | 52 | 152 | 0.0 | 4.0 | 0.00 | 0.06 | 0.04 | 95 | 1010.7 |
| 20260507151528 | 52 | 102 | 1.0 | 5.0 | 0.00 | 0.06 | 0.04 | 95 | 1010.8 |
| 20260507151027 | 52 | 147 | 0.0 | 5.0 | 0.00 | 0.06 | 0.04 | 95 | 1010.8 |
| 20260507150528 | 52 | 141 | 0.0 | 6.0 | 0.00 | 0.06 | 0.04 | 95 | 1010.9 |
| 20260507150030 | 52 | 114 | 0.0 | 3.0 | 0.00 | 0.06 | 0.04 | 95 | 1011.0 |
| 20260507145526 | 52 | 136 | 0.0 | 4.0 | 0.00 | 0.06 | 0.04 | 95 | 1010.9 |
| 20260507145025 | 52 | 88 | 0.0 | 4.0 | 0.00 | 0.06 | 0.04 | 95 | 1010.9 |
| 20260507144530 | 52 | 105 | 0.0 | 5.0 | 0.00 | 0.06 | 0.04 | 95 | 1011.0 |
| 20260507144026 | 52 | 61 | 3.0 | 4.0 | 0.00 | 0.06 | 0.04 | 95 | 1011.0 |
| 20260507143523 | 52 | 119 | 0.0 | 3.0 | 0.00 | 0.06 | 0.04 | 95 | 1010.8 |
| 20260507143030 | 53 | 123 | 0.0 | 4.0 | 0.00 | 0.06 | 0.04 | 95 | 1010.6 |
| 20260507142522 | 53 | 111 | 2.0 | 4.0 | 0.00 | 0.06 | 0.04 | 95 | 1010.5 |
| 20260507142022 | 52 | 76 | 1.0 | 4.0 | 0.01 | 0.06 | 0.04 | 95 | 1010.5 |
| 20260507141519 | 53 | 79 | 0.0 | 7.0 | 0.01 | 0.06 | 0.04 | 95 | 1010.7 |
| 20260507141019 | 53 | 54 | 0.0 | 7.0 | 0.01 | 0.06 | 0.04 | 95 | 1011.1 |
| 20260507140517 | 53 | 65 | 2.0 | 8.0 | 0.01 | 0.06 | 0.04 | 95 | 1010.9 |
| 20260507140017 | 53 | 94 | 2.0 | 5.0 | 0.02 | 0.06 | 0.04 | 95 | 1010.9 |
| 20260507135515 | 53 | 127 | 1.0 | 6.0 | 0.02 | 0.06 | 0.04 | 95 | 1010.8 |
| 20260507135016 | 54 | 178 | 3.0 | 6.0 | 0.02 | 0.06 | 0.04 | 95 | 1010.9 |
| 20260507134514 | 54 | 132 | 1.0 | 5.0 | 0.02 | 0.06 | 0.04 | 96 | 1011.1 |
| 20260507134014 | 54 | 116 | 0.0 | 3.0 | 0.02 | 0.06 | 0.04 | 95 | 1011.1 |
| 20260507133514 | 54 | 184 | 0.0 | 0.0 | 0.02 | 0.06 | 0.04 | 95 | 1011.1 |
| 20260507133015 | 54 | 97 | 0.0 | 2.0 | 0.02 | 0.06 | 0.04 | 95 | 1010.9 |
| 20260507132511 | 54 | 107 | 0.0 | 3.0 | 0.03 | 0.06 | 0.04 | 95 | 1010.9 |
| 20260507132011 | 54 | 112 | 0.0 | 1.0 | 0.02 | 0.05 | 0.03 | 95 | 1010.9 |
| 20260507131513 | 54 | 125 | 0.0 | 3.0 | 0.02 | 0.05 | 0.03 | 95 | 1010.9 |
| 20260507131010 | 54 | 117 | 0.0 | 3.0 | 0.02 | 0.05 | 0.03 | 95 | 1010.9 |
| 20260507130510 | 54 | 128 | 1.0 | 4.0 | 0.02 | 0.05 | 0.03 | 95 | 1010.9 |
| 20260507130008 | 54 | 68 | 1.0 | 4.0 | 0.01 | 0.04 | 0.02 | 94 | 1010.8 |
| 20260507125508 | 54 | 50 | 1.0 | 4.0 | 0.01 | 0.13 | 0.02 | 94 | 1011.0 |
| 20260507125007 | 54 | 15 | 1.0 | 6.0 | 0.01 | 0.13 | 0.02 | 94 | 1010.9 |
| 20260507124511 | 54 | 92 | 0.0 | 4.0 | 0.01 | 0.13 | 0.02 | 94 | 1010.7 |
| 20260507124006 | 55 | 71 | 1.0 | 4.0 | 0.01 | 0.13 | 0.02 | 94 | 1010.6 |
| 20260507123507 | 55 | 57 | 0.0 | 4.0 | 0.01 | 0.13 | 0.02 | 94 | 1010.6 |
| 20260507123008 | 55 | 71 | 0.0 | 4.0 | 0.01 | 0.13 | 0.02 | 93 | 1010.8 |
| 20260507122502 | 55 | 231 | 0.0 | 4.0 | 0.00 | 0.12 | 0.01 | 93 | 1010.8 |
| 20260507122001 | 55 | 270 | 0.0 | 7.0 | 0.00 | 0.12 | 0.01 | 93 | 1010.7 |
| 20260507121501 | 55 | 199 | 0.0 | 7.0 | 0.00 | 0.12 | 0.01 | 93 | 1010.4 |
| 20260507121101 | 55 | 142 | 1.0 | 9.0 | 0.00 | 0.12 | 0.01 | 93 | 1010.3 |
| 20260507120559 | 55 | 80 | 2.0 | 10.0 | 0.00 | 0.12 | 0.01 | 93 | 1010.6 |
| 20260507120104 | 56 | 144 | 1.0 | 7.0 | 0.00 | 0.12 | 0.01 | 93 | 1010.4 |
| 20260507115556 | 56 | 128 | 2.0 | 11.0 | 0.00 | 0.13 | 0.01 | 92 | 1010.3 |
| 20260507115055 | 56 | 57 | 2.0 | 11.0 | 0.00 | 0.13 | 0.01 | 92 | 1010.2 |
| 20260507114634 | 57 | 179 | 1.0 | 6.0 | 0.00 | 0.13 | 0.01 | 92 | 1010.4 |
| 20260507114055 | 58 | 178 | 0.0 | 8.0 | 0.00 | 0.13 | 0.01 | 91 | 1010.1 |
| 20260507113551 | 58 | 88 | 2.0 | 8.0 | 0.00 | 0.13 | 0.01 | 91 | 1010.0 |
| 20260507113049 | 60 | 96 | 2.0 | 12.0 | 0.00 | 0.13 | 0.01 | 91 | 1009.8 |
| 20260507112549 | 60 | 134 | 1.0 | 12.0 | 0.00 | 0.13 | 0.01 | 91 | 1009.7 |
| 20260507112049 | 60 | 127 | 2.0 | 10.0 | 0.00 | 0.13 | 0.01 | 89 | 1009.5 |
| 20260507111548 | 60 | 103 | 2.0 | 6.0 | 0.00 | 0.13 | 0.01 | 87 | 1009.4 |
| 20260507111046 | 60 | 73 | 0.0 | 5.0 | 0.00 | 0.13 | 0.01 | 88 | 1009.4 |
| 20260507110545 | 61 | 75 | 2.0 | 6.0 | 0.00 | 0.13 | 0.01 | 88 | 1009.1 |
| 20260507110046 | 61 | 360 | 3.0 | 6.0 | 0.00 | 0.13 | 0.01 | 87 | 1009.2 |
| 20260507105542 | 60 | 68 | 2.0 | 6.0 | 0.00 | 0.13 | 0.01 | 88 | 1009.1 |
| 20260507105042 | 60 | 15 | 2.0 | 6.0 | 0.00 | 0.13 | 0.01 | 89 | 1008.9 |
| 20260507104543 | 59 | 34 | 2.0 | 5.0 | 0.00 | 0.13 | 0.01 | 92 | 1008.9 |
| 20260507104040 | 60 | 72 | 0.0 | 4.0 | 0.00 | 0.13 | 0.01 | 94 | 1008.6 |
| 20260507103540 | 60 | 74 | 0.0 | 0.0 | 0.00 | 0.13 | 0.01 | 94 | 1008.5 |
| 20260507103139 | 60 | 119 | 0.0 | 0.0 | 0.00 | 0.13 | 0.01 | 95 | 1008.5 |
| 20260507102538 | 60 | 53 | 0.0 | 0.0 | 0.00 | 0.13 | 0.01 | 94 | 1008.3 |
| 20260507102040 | 60 | 53 | 0.0 | 0.0 | 0.00 | 0.13 | 0.01 | 94 | 1008.3 |
| 20260507101542 | 60 | 53 | 0.0 | 0.0 | 0.00 | 0.13 | 0.01 | 94 | 1008.6 |
| 20260507101036 | 60 | 53 | 0.0 | 3.0 | 0.00 | 0.13 | 0.01 | 94 | 1008.7 |
| 20260507100536 | 61 | 57 | 0.0 | 3.0 | 0.00 | 0.13 | 0.01 | 93 | 1008.6 |
| 20260507100036 | 61 | 137 | 0.0 | 0.0 | 0.00 | 0.13 | 0.01 | 93 | 1008.5 |
| 20260507095535 | 61 | 137 | 0.0 | 0.0 | 0.00 | 0.13 | 0.01 | 93 | 1008.3 |
| 20260507095037 | 61 | 101 | 0.0 | 0.0 | 0.00 | 0.13 | 0.01 | 92 | 1008.6 |
| 20260507094534 | 61 | 12 | 0.0 | 4.0 | 0.00 | 0.13 | 0.01 | 92 | 1008.8 |
| 20260507094034 | 61 | 12 | 1.0 | 5.0 | 0.00 | 0.13 | 0.01 | 92 | 1008.8 |
| 20260507093534 | 61 | 355 | 2.0 | 5.0 | 0.00 | 0.13 | 0.01 | 93 | 1008.6 |
| 20260507093034 | 61 | 173 | 0.0 | 0.0 | 0.00 | 0.13 | 0.01 | 94 | 1008.4 |
| 20260507092533 | 61 | 173 | 0.0 | 0.0 | 0.00 | 0.13 | 0.01 | 94 | 1008.2 |
| 20260507092033 | 61 | 79 | 0.0 | 0.0 | 0.00 | 0.13 | 0.01 | 94 | 1008.0 |
| 20260507091540 | 61 | 109 | 0.0 | 0.0 | 0.00 | 0.13 | 0.01 | 94 | 1008.1 |
| 20260507091032 | 61 | 56 | 0.0 | 4.0 | 0.00 | 0.13 | 0.01 | 94 | 1008.3 |
| 20260507090533 | 61 | 141 | 1.0 | 4.0 | 0.00 | 0.13 | 0.01 | 94 | 1008.5 |
| 20260507090036 | 61 | 132 | 0.0 | 1.0 | 0.00 | 0.13 | 0.01 | 94 | 1008.8 |
| 20260507085530 | 61 | 109 | 0.0 | 1.0 | 0.00 | 0.13 | 0.01 | 94 | 1008.8 |
| 20260507085031 | 61 | 140 | 0.0 | 1.0 | 0.00 | 0.13 | 0.01 | 94 | 1008.7 |
| 20260507084529 | 62 | 140 | 0.0 | 1.0 | 0.00 | 0.13 | 0.01 | 94 | 1008.6 |
| 20260507084027 | 62 | 140 | 0.0 | 2.0 | 0.00 | 0.13 | 0.01 | 94 | 1008.6 |
| 20260507083527 | 62 | 140 | 0.0 | 2.0 | 0.00 | 0.13 | 0.01 | 94 | 1008.5 |
| 20260507083032 | 62 | 43 | 0.0 | 4.0 | 0.00 | 0.13 | 0.01 | 94 | 1008.7 |
| 20260507082526 | 62 | 5 | 1.0 | 5.0 | 0.00 | 0.13 | 0.01 | 93 | 1008.6 |
| 20260507082025 | 62 | 107 | 2.0 | 5.0 | 0.00 | 0.13 | 0.01 | 92 | 1008.4 |
| 20260507081524 | 62 | 253 | 0.0 | 3.0 | 0.00 | 0.13 | 0.01 | 92 | 1008.7 |
| 20260507081024 | 63 | 231 | 0.0 | 6.0 | 0.00 | 0.13 | 0.01 | 91 | 1008.8 |
| 20260507080523 | 63 | 120 | 0.0 | 0.0 | 0.00 | 0.13 | 0.01 | 91 | 1008.7 |
| 20260507080024 | 63 | 120 | 0.0 | 4.0 | 0.00 | 0.13 | 0.01 | 90 | 1008.6 |
| 20260507075523 | 64 | 120 | 0.0 | 10.0 | 0.00 | 0.13 | 0.01 | 88 | 1008.5 |
| 20260507075024 | 64 | 284 | 1.0 | 10.0 | 0.00 | 0.13 | 0.01 | 87 | 1008.4 |
| 20260507074522 | 63 | 244 | 3.0 | 9.0 | 0.00 | 0.13 | 0.01 | 88 | 1008.3 |
| 20260507074021 | 63 | 332 | 0.0 | 6.0 | 0.00 | 0.13 | 0.01 | 91 | 1008.5 |
| 20260507073521 | 63 | 63 | 1.0 | 6.0 | 0.00 | 0.13 | 0.01 | 91 | 1008.2 |
| 20260507073021 | 63 | 137 | 0.0 | 4.0 | 0.00 | 0.13 | 0.01 | 92 | 1007.9 |
| 20260507072521 | 63 | 94 | 0.0 | 3.0 | 0.00 | 0.13 | 0.01 | 92 | 1008.2 |
| 20260507072019 | 64 | 104 | 0.0 | 5.0 | 0.00 | 0.13 | 0.01 | 91 | 1008.3 |
| 20260507071519 | 64 | 41 | 2.0 | 14.0 | 0.00 | 0.13 | 0.01 | 90 | 1008.4 |
| 20260507071018 | 64 | 28 | 5.0 | 14.0 | 0.00 | 0.13 | 0.01 | 88 | 1008.5 |
| 20260507070518 | 64 | 333 | 2.0 | 10.0 | 0.00 | 0.13 | 0.01 | 93 | 1008.4 |
| 20260507070021 | 63 | 275 | 1.0 | 14.0 | 0.00 | 0.13 | 0.01 | 95 | 1008.5 |
| 20260507065516 | 63 | 319 | 3.0 | 14.0 | 0.00 | 0.13 | 0.01 | 97 | 1008.4 |
| 20260507065016 | 62 | 303 | 0.0 | 3.0 | 0.00 | 0.13 | 0.01 | 97 | 1008.3 |
| 20260507064516 | 62 | 192 | 1.0 | 3.0 | 0.00 | 0.13 | 0.01 | 97 | 1008.0 |
| 20260507064017 | 62 | 321 | 0.0 | 0.0 | 0.00 | 0.13 | 0.01 | 97 | 1008.2 |
| 20260507063516 | 62 | 346 | 0.0 | 0.0 | 0.00 | 0.13 | 0.01 | 97 | 1008.1 |
| 20260507063015 | 62 | 241 | 0.0 | 0.0 | 0.00 | 0.13 | 0.01 | 97 | 1008.0 |
| 20260507062515 | 63 | 241 | 0.0 | 0.0 | 0.00 | 0.13 | 0.01 | 97 | 1008.1 |
| 20260507062017 | 63 | 241 | 0.0 | 2.0 | 0.00 | 0.13 | 0.01 | 97 | 1008.1 |
| 20260507061514 | 63 | 331 | 0.0 | 2.0 | 0.00 | 0.13 | 0.01 | 97 | 1008.3 |
| 20260507061012 | 63 | 238 | 0.0 | 2.0 | 0.00 | 0.13 | 0.01 | 97 | 1008.3 |
| 20260507060514 | 63 | 263 | 0.0 | 4.0 | 0.00 | 0.13 | 0.01 | 97 | 1008.6 |
| 20260507060014 | 63 | 285 | 0.0 | 5.0 | 0.00 | 0.13 | 0.01 | 97 | 1008.7 |
| 20260507055510 | 63 | 184 | 1.0 | 5.0 | 0.00 | 0.13 | 0.01 | 97 | 1008.6 |
| 20260507055010 | 63 | 268 | 1.0 | 5.0 | 0.00 | 0.13 | 0.01 | 97 | 1008.8 |
| 20260507054518 | 63 | 223 | 0.0 | 6.0 | 0.00 | 0.13 | 0.01 | 97 | 1009.2 |
| 20260507054016 | 63 | 267 | 2.0 | 6.0 | 0.00 | 0.13 | 0.01 | 97 | 1009.2 |
| 20260507053509 | 63 | 298 | 0.0 | 5.0 | 0.00 | 0.13 | 0.01 | 97 | 1009.0 |
| 20260507053008 | 63 | 306 | 0.0 | 4.0 | 0.00 | 0.13 | 0.01 | 97 | 1008.8 |
| 20260507052510 | 63 | 271 | 2.0 | 4.0 | 0.00 | 0.13 | 0.01 | 97 | 1008.8 |
| 20260507052009 | 63 | 298 | 0.0 | 3.0 | 0.00 | 0.13 | 0.01 | 97 | 1008.5 |
| 20260507051508 | 63 | 252 | 0.0 | 3.0 | 0.01 | 0.13 | 0.01 | 97 | 1008.3 |
| 20260507051008 | 63 | 219 | 0.0 | 3.0 | 0.01 | 0.13 | 0.01 | 97 | 1008.3 |
| 20260507050507 | 63 | 294 | 0.0 | 3.0 | 0.01 | 0.13 | 0.01 | 97 | 1008.4 |
| 20260507050006 | 63 | 248 | 0.0 | 0.0 | 0.01 | 0.13 | 0.01 | 97 | 1008.2 |
| 20260507045506 | 63 | 134 | 0.0 | 2.0 | 0.01 | 0.13 | 0.01 | 97 | 1008.3 |
| 20260507045006 | 63 | 134 | 0.0 | 2.0 | 0.01 | 0.13 | 0.01 | 97 | 1008.4 |
| 20260507044506 | 63 | 242 | 0.0 | 3.0 | 0.01 | 0.13 | 0.01 | 97 | 1008.5 |
| 20260507044004 | 63 | 329 | 0.0 | 5.0 | 0.01 | 0.13 | 0.01 | 97 | 1008.4 |
| 20260507043607 | 63 | 297 | 2.0 | 5.0 | 0.02 | 0.13 | 0.01 | 96 | 1008.4 |
| 20260507043004 | 63 | 278 | 0.0 | 3.0 | 0.02 | 0.13 | 0.01 | 97 | 1008.0 |
| 20260507042501 | 63 | 278 | 0.0 | 3.0 | 0.02 | 0.13 | 0.01 | 96 | 1008.4 |
| 20260507042100 | 63 | 287 | 0.0 | 1.0 | 0.02 | 0.13 | 0.01 | 96 | 1008.6 |
| 20260507041600 | 63 | 287 | 0.0 | 2.0 | 0.01 | 0.12 | 0.00 | 96 | 1008.8 |
| 20260507041058 | 64 | 295 | 0.0 | 3.0 | 0.01 | 0.12 | 0.00 | 96 | 1009.0 |
| 20260507040557 | 64 | 288 | 0.0 | 0.0 | 0.01 | 0.12 | 0.00 | 96 | 1008.9 |
| 20260507040100 | 64 | 288 | 0.0 | 1.0 | 0.01 | 0.12 | 0.00 | 95 | 1009.1 |
| 20260507035555 | 64 | 288 | 0.0 | 4.0 | 0.01 | 0.12 | 0.12 | 96 | 1009.4 |
| 20260507035055 | 64 | 288 | 0.0 | 4.0 | 0.01 | 0.12 | 0.12 | 95 | 1009.7 |
| 20260507034558 | 64 | 269 | 0.0 | 4.0 | 0.01 | 0.12 | 0.12 | 95 | 1009.8 |
| 20260507034055 | 64 | 251 | 0.0 | 4.0 | 0.01 | 0.12 | 0.12 | 95 | 1010.0 |
| 20260507033554 | 64 | 243 | 0.0 | 4.0 | 0.00 | 0.11 | 0.11 | 95 | 1010.0 |
| 20260507033100 | 64 | 299 | 0.0 | 3.0 | 0.00 | 0.11 | 0.11 | 94 | 1010.0 |
| 20260507032555 | 64 | 210 | 0.0 | 3.0 | 0.00 | 0.11 | 0.11 | 94 | 1009.8 |
| 20260507032053 | 65 | 255 | 0.0 | 3.0 | 0.00 | 0.11 | 0.11 | 93 | 1009.4 |
| 20260507031554 | 65 | 302 | 0.0 | 9.0 | 0.00 | 0.11 | 0.11 | 93 | 1009.3 |
| 20260507031054 | 65 | 309 | 2.0 | 9.0 | 0.00 | 0.11 | 0.11 | 93 | 1009.1 |
| 20260507030654 | 65 | 281 | 0.0 | 6.0 | 0.00 | 0.11 | 0.11 | 93 | 1009.5 |
| 20260507030053 | 65 | 275 | 1.0 | 10.0 | 0.00 | 0.11 | 0.11 | 93 | 1010.1 |
| 20260507025552 | 65 | 283 | 2.0 | 11.0 | 0.00 | 0.11 | 0.11 | 93 | 1010.2 |
| 20260507025052 | 65 | 273 | 3.0 | 11.0 | 0.00 | 0.11 | 0.11 | 93 | 1009.6 |
| 20260507024604 | 65 | 246 | 1.0 | 4.0 | 0.00 | 0.11 | 0.11 | 92 | 1009.3 |
| 20260507024055 | 65 | 227 | 1.0 | 5.0 | 0.00 | 0.11 | 0.11 | 92 | 1009.4 |
| 20260507023554 | 65 | 296 | 2.0 | 8.0 | 0.00 | 0.11 | 0.11 | 92 | 1009.3 |
| 20260507023052 | 65 | 309 | 2.0 | 8.0 | 0.00 | 0.11 | 0.11 | 92 | 1009.2 |
| 20260507022559 | 65 | 217 | 0.0 | 6.0 | 0.00 | 0.11 | 0.11 | 92 | 1009.3 |
| 20260507022051 | 65 | 278 | 0.0 | 10.0 | 0.00 | 0.11 | 0.11 | 92 | 1009.4 |
| 20260507021552 | 64 | 312 | 4.0 | 10.0 | 0.00 | 0.11 | 0.11 | 93 | 1009.3 |
| 20260507021051 | 64 | 190 | 0.0 | 5.0 | 0.00 | 0.11 | 0.11 | 93 | 1008.9 |
| 20260507020551 | 64 | 298 | 1.0 | 5.0 | 0.00 | 0.11 | 0.11 | 94 | 1009.1 |
| 20260507020107 | 63 | 302 | 0.0 | 0.0 | 0.00 | 0.11 | 0.11 | 93 | 1008.6 |
| 20260507015553 | 64 | 306 | 0.0 | 0.0 | 0.00 | 0.11 | 0.11 | 93 | 1008.3 |
| 20260507015049 | 64 | 306 | 0.0 | 3.0 | 0.00 | 0.11 | 0.11 | 93 | 1008.6 |
| 20260507014553 | 64 | 306 | 1.0 | 3.0 | 0.00 | 0.11 | 0.11 | 94 | 1008.6 |
| 20260507014050 | 63 | 236 | 0.0 | 0.0 | 0.00 | 0.11 | 0.11 | 94 | 1008.6 |
| 20260507013549 | 63 | 211 | 0.0 | 4.0 | 0.00 | 0.11 | 0.11 | 94 | 1008.7 |
| 20260507013055 | 63 | 211 | 0.0 | 4.0 | 0.00 | 0.11 | 0.11 | 94 | 1009.0 |